BUS_NAME,NETWORK_OPERATOR_ID,CONNECTION_TYPE,PARTY,UNIT_OF_MEASURE,FLOW,STATUS,MD_DATE,TP1,TP2,TP3,TP4,TP5,TP6,TP7,TP8,TP9,TP10,TP11,TP12,TP13,TP14,TP15,TP16,TP17,TP18,TP19,TP20,TP21,TP22,TP23,TP24,TP25,TP26,TP27,TP28,TP29,TP30,TP31,TP32,TP33,TP34,TP35,TP36,TP37,TP38,TP39,TP40,TP41,TP42,TP43,TP44,TP45,TP46,TP47,TP48,TP49,TP50,CHECKSUM
ARI1101,ECNZ,GG,ECNZ,kWh,I,F,01/03/1999,19280,19330,19330,19170,22260,22730,22860,22620,22670,22370,22170,24280,27890,36090,37010,36880,36880,37060,36850,36990,37080,36730,36930,36000,34990,35910,35580,35730,35090,35500,35190,35250,35270,35560,35700,35540,32600,37610,36320,35740,36220,35730,35700,35590,32930,32880,32350,27860,1528300
ARI1101,ECNZ,GG,ECNZ,kWh,I,F,02/03/1999,29330,29820,28390,28960,28150,28890,29920,29580,29910,30200,29990,30650,32860,37100,36820,36370,40590,44440,43360,41010,38850,41620,41870,41770,41950,41800,43580,43440,43300,43080,41930,42680,41890,40640,39590,37270,33950,37370,38720,43820,52160,63120,54970,38470,42960,43110,52110,42270,1874630
ARI1101,ECNZ,GG,ECNZ,kWh,I,F,03/03/1999,36400,37650,30950,31110,30140,29920,29760,29490,28590,28350,28010,28360,28140,28840,39280,43100,42920,43660,37630,53900,53230,51470,55810,55480,46700,44200,44800,49330,46530,44220,45470,50480,62540,69880,73880,73800,65160,52470,52330,52850,52850,52730,51850,52800,53400,50890,50730,41780,2183860
ARI1101,ECNZ,GG,ECNZ,kWh,I,F,04/03/1999,31140,31160,30310,31090,31380,31400,31200,31380,31530,31320,31460,32480,36490,37520,40780,42530,49300,49220,49190,49090,42000,40860,41070,40980,40930,41150,42020,41790,41900,41880,41970,42020,41890,47680,53340,53200,44350,40190,42520,43260,44860,44900,61540,43270,40080,40450,39090,33490,1942650
ARI1101,ECNZ,GG,ECNZ,kWh,I,F,05/03/1999,32560,34720,44080,44390,43640,33790,20670,17870,18080,20290,25390,26620,37200,37760,47090,68200,70580,62830,62150,51660,41310,37040,41390,47900,51490,51320,57670,58130,57410,55610,50590,42440,42600,44990,45790,45780,39270,36180,38570,50180,50370,52500,44540,43830,41920,41790,41340,36200,2087720
ARI1101,ECNZ,GG,ECNZ,kWh,I,F,06/03/1999,21140,19820,19960,16100,13120,12320,12700,12300,11220,12560,12500,12740,12630,28000,32070,31920,31780,31930,32010,31850,31660,28560,31300,33140,35470,32490,30370,33920,33160,33390,31910,31850,31750,31970,36720,38020,38080,38060,42210,63430,73290,58720,37060,25220,24110,25030,27020,25840,1412420
ARI1101,ECNZ,GG,ECNZ,kWh,I,F,07/03/1999,26200,24500,18610,17330,18720,19020,18860,13930,11800,11610,12190,11640,11610,16250,31830,33930,34380,34270,34150,34900,35380,38670,37030,37760,34670,32290,35950,34410,33930,33070,35940,34770,35340,34570,34200,34330,34640,34600,38620,47090,51090,40490,30950,29920,29540,31100,24180,26140,1416400
ARI1101,ECNZ,GG,ECNZ,kWh,I,F,08/03/1999,22310,19630,18810,11790,13390,17210,16960,16830,16970,29330,32090,28300,24880,25080,22420,34350,36840,37530,40890,41270,49960,45910,43300,43390,43130,44910,52420,52510,53270,49040,47200,47900,49850,48050,51160,66630,67500,65670,38020,37040,42420,41570,34950,34540,32640,32950,29970,30020,1782800
ARI1101,ECNZ,GG,ECNZ,kWh,I,F,09/03/1999,28690,27470,27140,26610,27630,22140,20270,20930,20900,21010,20440,19970,32510,33260,46110,63550,73370,66620,64150,64090,60500,43700,40310,47480,52370,45340,33760,45700,55220,55140,55050,55060,55000,54940,60600,63030,63070,61730,44000,46220,51810,45530,32900,25980,27440,31950,27690,29080,2037460
ARI1101,ECNZ,GG,ECNZ,kWh,I,F,10/03/1999,29250,28880,28620,29280,29230,28860,29480,29660,29650,29500,29420,23370,24950,31640,40690,39180,46430,52140,52180,48970,38830,32430,32440,32430,32440,32390,32460,32440,32470,32120,32440,39120,40010,43380,42900,43450,44950,42540,41330,41360,41270,40650,30500,31540,27430,25840,25810,25800,1672150
ARI1101,ECNZ,GG,ECNZ,kWh,I,F,11/03/1999,26160,24100,23700,20210,20030,20570,20300,19750,19930,20910,20930,20040,20230,29840,29950,30270,30160,30370,30460,30450,30810,31080,50630,62520,62420,60720,61630,61150,61280,61200,59150,50700,59650,60570,60450,41910,40940,41440,40120,41600,40900,40640,40570,38250,31680,31780,31650,31720,1815520
ARI1101,ECNZ,GG,ECNZ,kWh,I,F,12/03/1999,31890,31700,31790,31870,31330,31490,31810,31780,31900,31840,31660,31750,31720,31730,31570,31600,31560,35240,36470,36300,39130,60450,56800,61500,61500,50350,38150,35680,36880,36960,36980,34930,34510,34480,35430,33890,33380,35200,34780,37740,36020,37130,24460,22610,23600,23830,26430,26930,1696730
ARI1101,ECNZ,GG,ECNZ,kWh,I,F,13/03/1999,27950,29510,33230,30410,30130,29700,26190,20490,20270,21110,20850,21140,33320,36600,35280,35480,35320,35210,34970,32950,27250,27970,27820,26840,27200,27680,28010,26970,30080,32950,33010,34160,34590,35950,36340,35980,36090,36200,36180,36580,36870,39870,38240,39420,35540,35830,34040,35170,1522940
ARI1101,ECNZ,GG,ECNZ,kWh,I,F,14/03/1999,35480,34630,34070,35690,33450,33610,33760,34830,30060,29680,29640,30210,29030,30360,30190,30100,30120,30410,29610,29580,29440,31260,31720,31890,33660,33810,34740,35460,35440,34750,31180,31450,31900,36030,34660,34670,34600,39170,41530,42340,41420,41250,31540,31380,31460,31740,32000,32110,1597110
ARI1101,ECNZ,GG,ECNZ,kWh,I,F,15/03/1999,31100,29970,32000,32130,32260,31790,32010,32010,32090,32140,31160,31370,32040,42640,47190,50290,56020,57250,57930,55430,52170,56230,60930,61680,56450,52350,62070,57830,51470,43670,46310,47190,53730,61160,61220,48740,32810,25050,28370,29980,29420,29290,29160,31850,31200,26190,26580,27320,1999240
ARI1101,ECNZ,GG,ECNZ,kWh,I,F,16/03/1999,27330,27610,27930,27250,28080,28830,28150,26570,26390,27380,28470,27100,30830,35130,43400,54160,53050,45080,44810,41230,45640,42460,43390,40050,38070,38370,34900,37110,40330,41200,39980,41130,50180,52960,53150,52980,53080,52980,53100,54200,53660,52420,48710,31810,26920,30930,36020,37790,1902300
ARI1101,ECNZ,GG,ECNZ,kWh,I,F,17/03/1999,32710,31540,30130,28900,29480,29450,33100,29670,30050,33100,34560,34450,34080,35210,39050,45200,49270,46160,44790,49960,50300,50020,45050,41440,40330,38030,37380,37390,39390,36710,37200,37190,37340,37310,37390,37400,36810,37590,40790,38300,36860,40290,40430,36060,36630,35520,36900,36970,1813880
ARI1101,ECNZ,GG,ECNZ,kWh,I,F,18/03/1999,33950,34390,32650,32090,32240,31620,30900,30230,30830,31480,29080,28240,28690,33160,42430,52040,50350,52830,51880,54490,47450,44270,43870,41620,39930,39980,38350,37510,36200,35970,37230,38380,38880,41630,45140,52600,51740,52790,52610,47660,46970,47320,44830,36410,36260,35000,35020,36320,1925510
ARI1101,ECNZ,GG,ECNZ,kWh,I,F,19/03/1999,35300,35740,35690,35550,35930,37570,35930,36120,35740,36360,35450,35090,35570,35980,48280,51590,57840,57880,62000,62400,62170,51380,45410,44960,36430,34540,33470,35770,43260,47560,47660,47810,48120,42290,35100,38640,39440,38280,39990,39950,39840,39460,39190,37260,32620,33340,34350,35950,1986250
ARI1101,ECNZ,GG,ECNZ,kWh,I,F,20/03/1999,35820,34960,35540,34380,35330,35530,35760,35990,33500,33160,33000,33820,33800,29810,32710,32810,34890,32540,31910,36300,49610,49640,49740,50540,49410,47550,46160,45340,45520,46080,46140,43180,37000,36870,36790,36690,36580,36560,35320,39760,39870,39130,39180,37310,34220,34890,31720,30750,1833110
ARI1101,ECNZ,GG,ECNZ,kWh,I,F,21/03/1999,28580,24870,24890,25060,24960,24810,24640,24970,24830,24980,25020,24510,32730,37050,37070,37210,38960,39240,39130,39140,40210,44910,44970,44980,45910,45900,45820,50230,48520,43620,36700,36530,36270,36610,36480,36530,36340,37810,38380,40770,41850,39290,36950,34490,27180,23150,22710,21800,24890,24880,1727330
ARI1101,ECNZ,GG,ECNZ,kWh,I,F,22/03/1999,25890,26750,26660,25940,26130,25890,25960,25210,26340,27750,27820,28110,30350,38870,41380,41570,41580,41010,36280,36290,36210,35860,33960,31000,30520,30200,30420,30380,31730,33240,33290,32680,33900,38210,42180,42730,52110,59870,61850,62810,62230,37270,47780,35720,32870,21830,24430,27950,1699010
ARI1101,ECNZ,GG,ECNZ,kWh,I,F,23/03/1999,28460,27300,23040,27380,28620,28240,27940,28160,28300,27740,26360,26530,31350,34050,44220,46030,50680,51860,52010,51520,52560,49800,47570,47720,42070,41620,42130,40090,40350,40190,40630,44640,47760,48670,50270,51640,49700,51040,60040,61610,62390,61790,40030,34300,24100,23600,21360,22520,1929980
ARI1101,ECNZ,GG,ECNZ,kWh,I,F,24/03/1999,23330,22300,23670,23260,22950,21310,16030,16950,23030,19890,24350,24550,28590,48270,50650,50670,49840,45990,42440,41930,39700,45490,47690,43160,32980,30360,26850,25620,27100,30270,34370,35850,39570,42200,42090,42510,50440,50570,50590,50430,50530,45210,34810,34870,33730,34660,25470,23730,1690850
ARI1101,ECNZ,GG,ECNZ,kWh,I,F,25/03/1999,23850,23410,24580,24160,24140,24470,24370,23470,23240,24170,24810,24810,28770,34510,38240,38940,38690,38860,38840,39100,38970,39060,39120,40070,39360,40530,40160,40040,40640,40420,46570,61010,61540,54190,49630,60400,61900,61960,61760,59770,56750,50880,45560,38040,24980,20150,19200,11510,1829600
ARI1101,ECNZ,GG,ECNZ,kWh,I,F,26/03/1999,11310,11270,10970,11330,11040,10760,11790,17980,22880,27460,28880,28240,29300,33480,35250,41860,43680,57970,61240,59890,50320,45830,46320,45150,45180,45000,45150,44100,45070,44560,43630,43460,43240,43040,40630,41750,48980,51790,55330,46510,45060,38790,27030,26450,26530,27880,26080,26770,1726210
ARI1101,ECNZ,GG,ECNZ,kWh,I,F,27/03/1999,24350,23760,24150,24220,25040,25040,24660,25960,21010,21210,22100,22060,30020,36420,35870,36010,36280,36030,36130,35330,33130,32770,31660,33860,33520,35300,32440,32380,31460,32070,31490,31680,32020,31620,31720,31850,31930,34770,34780,35000,35240,35240,35410,34110,30630,22870,21030,19860,1455490
ARI1101,ECNZ,GG,ECNZ,kWh,I,F,28/03/1999,17490,16930,13500,11060,13240,13470,13570,18160,22540,23780,24220,24530,30020,34850,37840,34640,38760,40550,40710,40280,40250,40570,39600,40380,40320,37730,34530,34350,34250,26810,26300,26360,26280,26910,28180,29090,36310,39810,39770,40900,39860,39060,40840,41070,34680,32550,26140,26770,1479810
ARI1101,ECNZ,GG,ECNZ,kWh,I,F,29/03/1999,26160,23130,22300,22040,22220,22600,22380,22460,22480,22390,21970,23620,39450,41420,41380,40950,41100,41160,41290,41600,41130,41210,41300,41230,41250,41290,41340,41370,44040,44370,44280,49950,52590,52590,52030,52680,52650,52570,52280,52260,52590,52750,52770,52630,51280,51760,51110,48490,1947890
ARI1101,ECNZ,GG,ECNZ,kWh,I,F,30/03/1999,26000,15630,15780,16040,15920,15810,16030,15590,15960,16080,16230,15970,18690,29350,27810,31330,34680,34690,34730,34810,34700,34520,35710,34640,40750,37880,34890,32710,32900,30860,31680,31410,33500,38010,40810,46340,49400,54810,53020,52750,52920,48010,33850,31030,30450,30150,34460,28740,1518030
ARI1101,ECNZ,GG,ECNZ,kWh,I,F,31/03/1999,28400,28480,28070,28120,28160,27890,27920,28020,28230,27610,27740,27890,29230,29080,27590,30820,34260,34360,34450,34540,34610,34630,34680,34730,34750,34010,34290,34640,35060,34010,35210,35190,35000,36120,34270,34110,34370,34640,38000,39150,39210,37460,34820,33480,28650,22920,24230,23910,1537010
ARI1101,ECNZ,GG,ECNZ,kWh,I,F,01/04/1999,23730,24540,24830,25120,24810,23420,23790,24050,24500,24990,18330,18290,37570,41040,41190,41200,41040,41300,41310,41110,41420,41280,38310,37190,35360,37480,36760,36540,36910,36970,36940,36780,36720,36780,36920,36970,36950,36540,35410,36630,33670,35880,35670,34590,31460,23290,15640,14630,1575850
ARI1101,MRPL,GG,AUCK,kWh,I,F,02/04/1999,26890,30780,30710,30730,37340,36110,37260,37330,37250,37330,38450,36590,36700,36950,36960,37020,37210,36780,36990,37040,37170,37290,37030,37090,37070,36540,37390,37420,37280,37210,37340,37380,37170,37390,37150,30570,26890,30590,36350,36250,36500,36070,36120,35950,33990,36390,36410,36330,1718750
ARI1101,MRPL,GG,AUCK,kWh,I,F,03/04/1999,31370,25460,29280,29700,29700,29600,29710,29700,29630,29590,29610,29620,29520,29510,29630,34320,44180,51940,51940,49300,39930,38810,49400,50820,41970,40110,41150,41370,38980,30170,33230,38860,29340,22920,29270,34720,34870,34480,34560,34810,34740,34940,34980,34740,34720,34780,34140,28270,1684390
ARI1101,MRPL,GG,AUCK,kWh,I,F,04/04/1999,33180,35110,34930,34630,34650,34670,35090,34440,34670,34730,34850,34970,34610,34690,34580,40570,42590,42700,42680,42670,35600,35340,35460,35540,35440,35460,35550,35420,35560,30790,27660,27660,27180,27580,27260,28090,37850,40780,40140,40020,33740,28960,26560,22380,19160,18960,19560,19540,1594250
ARI1101,MRPL,GG,AUCK,kWh,I,F,05/04/1999,19350,19370,19360,20300,22890,22960,23070,23070,22350,22970,23160,28880,35600,35520,35760,34830,25110,24670,34700,34570,35100,34870,34870,35020,34850,34870,34990,34780,34870,35020,35080,39450,34850,35630,43900,45780,45250,48480,51410,51950,51820,51960,51730,52440,34470,32940,34560,32030,1651460
ARI1101,MRPL,GG,AUCK,kWh,I,F,06/04/1999,22280,20530,22640,23200,23110,22980,22070,22910,21620,25860,30600,55440,62680,61690,61970,61900,59170,52940,49440,49440,49300,49120,48800,49290,48200,49160,44400,41880,43200,40630,40790,43110,42720,51610,54510,55730,55070,52490,52400,53000,53940,53870,53790,43230,40680,33970,37470,37790,2092620
ARI1101,MRPL,GG,AUCK,kWh,I,F,07/04/1999,37230,37110,37500,37470,34160,34170,32030,34770,35030,26650,24910,27390,28170,33530,24480,39810,39800,40510,47780,46870,38670,33950,36010,37000,35730,35750,35570,36770,36890,37010,37320,37300,38970,37680,36840,37110,38250,37020,37850,35390,37430,37620,36980,32850,30090,34060,34630,34610,1714720
ARI1101,MRPL,GG,AUCK,kWh,I,F,08/04/1999,34500,34560,34510,33800,34280,34370,34460,34120,34450,34370,34400,33150,31230,33050,34330,35230,35560,43490,51960,51920,51990,52000,51970,52000,51990,51960,51910,51990,51960,52090,52100,52410,52090,51870,51750,51800,55550,61450,61480,55170,43120,38570,34060,39220,44750,47550,47780,39660,2127980
ARI1101,MRPL,GG,AUCK,kWh,I,F,09/04/1999,43530,40400,37430,33820,32670,37140,38580,38670,40740,28190,44410,42330,43070,44740,44570,47300,46080,51390,51070,49240,51230,51000,50940,50760,50530,50710,41480,33940,33750,28300,22310,22260,22180,21990,22190,22870,26380,33580,39000,34020,37010,36910,35430,36200,31770,24180,35470,32050,1813810
ARI1101,MRPL,GG,AUCK,kWh,I,F,10/04/1999,32440,29240,23880,22660,23000,22640,22780,22330,21560,22390,19180,24200,30920,37890,38900,37520,36730,36690,36500,36640,40430,40430,40470,40410,40390,40400,40370,40200,40380,40390,40390,40430,40300,38770,38500,38470,39120,38290,37980,38300,38430,38370,38220,38560,38480,37970,30960,30730,1664230
ARI1101,MRPL,GG,AUCK,kWh,I,F,11/04/1999,31020,30990,30940,30850,30720,30980,30690,30340,30790,31090,29880,29670,30350,37900,38990,39840,39750,39670,39690,38910,40420,40950,40980,40890,40760,40720,40840,40810,40840,40470,40830,40960,40890,40580,40990,40830,41260,40550,40330,38730,38930,38750,38120,37910,31430,31260,31300,31250,1765640
ARI1101,MRPL,GG,AUCK,kWh,I,F,12/04/1999,31300,31380,31350,31330,30990,30850,30470,30450,31590,30090,30170,30700,31950,31350,31600,31670,31490,38220,39020,40080,41240,42050,41630,37130,36300,36340,39490,40010,38100,38040,40160,40520,38150,37610,37820,39750,65470,75520,75890,70490,55750,55770,44450,32080,32440,31690,31690,31680,1873310
ARI1101,MRPL,GG,AUCK,kWh,I,F,13/04/1999,31680,31690,31680,31690,31680,31680,31680,31680,31680,31670,31680,31670,31680,31690,35670,42610,50120,62680,62840,63010,61270,60920,53650,53500,43920,34530,32270,32270,32290,32270,32270,32280,32230,34280,41440,48150,40960,57230,53320,42820,41650,40300,40130,38920,26900,26080,26640,26770,1879720
ARI1101,MRPL,GG,AUCK,kWh,I,F,14/04/1999,25940,25400,26270,24700,25180,25050,24990,24810,24770,24710,28620,29730,30470,35330,40790,45650,46360,47000,47100,41830,41120,41200,40740,41180,41140,43610,44850,42680,44740,43700,44410,43600,6090,30250,43240,42730,43390,39870,37560,30910,31370,31230,31160,31230,30970,30900,30930,31220,1680720
ARI1101,MRPL,GG,AUCK,kWh,I,F,15/04/1999,30660,30760,31350,31270,30680,31210,31130,31120,31000,31010,31030,31170,30720,31750,30750,32360,33470,32420,32440,32390,32480,32450,32430,32880,38670,36900,36480,36530,41590,38680,38060,38060,38020,38080,38040,39010,41550,42060,42170,41840,42540,42520,41160,40630,40610,33630,28680,28290,1682730
ARI1101,MRPL,GG,AUCK,kWh,I,F,16/04/1999,29230,27540,27910,28600,28530,28160,28590,28490,28500,28460,28460,28510,28950,40310,40620,36490,36320,36360,36500,36680,36850,37080,36880,36940,36850,37090,37020,37100,37000,37150,37140,37100,37020,37100,35830,37250,47070,44820,40780,43370,43740,44680,44750,44430,32850,32510,32520,31520,1707650
ARI1101,MRPL,GG,AUCK,kWh,I,F,17/04/1999,32340,27050,24680,24690,24700,24690,24360,22850,22610,28970,29000,29020,40230,51570,51990,47000,46480,47940,74080,71310,71740,72180,71850,72230,71670,71240,72860,73020,72860,72960,72980,73650,75170,75760,75510,75690,75190,75210,69710,69050,65760,62090,61840,61010,59520,48460,43090,42950,2650810
ARI1101,MRPL,GG,AUCK,kWh,I,F,18/04/1999,43090,42850,40910,41010,39440,41530,42080,40040,41280,41660,40620,40050,41230,41010,40120,39580,39290,39410,39120,39240,39280,39190,39260,39050,39140,39230,39190,39210,39440,39370,39550,39500,39530,41850,46630,52730,71310,73470,72180,74030,74270,73860,60440,55540,54820,54550,51390,44170,2225740
ARI1101,MRPL,GG,AUCK,kWh,I,F,19/04/1999,42720,42020,40460,30600,29370,29260,29090,28660,29340,29320,29300,29170,29010,35840,46530,53240,55280,49480,52500,49980,50640,51720,50910,52850,50800,50430,48140,49750,53480,51420,53600,49480,51990,51970,51770,57740,70600,65500,61850,52530,47670,39800,36290,29520,29330,27280,25120,20830,2094180
ARI1101,MRPL,GG,AUCK,kWh,I,F,20/04/1999,21830,22020,21630,21290,20560,21590,20960,20800,21910,21840,25710,26820,29400,29560,36080,33600,35860,38280,40780,35100,36120,35990,34890,30790,32340,34030,32990,36550,30550,34280,35300,35050,37670,36690,39430,37710,38940,39270,42960,43390,49000,47390,43320,39170,38190,34110,31080,25090,1577910
ARI1101,MRPL,GG,AUCK,kWh,I,F,21/04/1999,29740,30050,31050,29800,24780,27890,27370,27180,29780,28080,25030,26710,27550,35350,40790,55310,49610,47600,42240,42190,48870,42490,42100,41750,41640,42360,40740,40340,40730,38460,40200,40570,39920,40750,39170,53440,74750,64630,45010,35340,36210,37970,27860,25700,22290,7320,24070,37750,1790530
ARI1101,MRPL,GG,AUCK,kWh,I,F,22/04/1999,40940,42710,42750,43760,41920,43130,42270,50620,49800,51460,50560,49250,49900,56860,72790,74060,73700,67810,68360,68900,72190,74730,74760,69360,65110,71250,71880,72750,62780,66140,63270,68860,73080,66410,72480,72470,71140,67180,68450,60170,56220,51550,55040,54570,56440,43240,32100,33350,2848520
ARI1101,MRPL,GG,AUCK,kWh,I,F,23/04/1999,33900,32470,32460,38600,40630,50640,55950,57010,56890,56460,59680,55140,61650,65590,70790,65840,67310,60630,64870,62980,60020,66950,65210,71500,70070,69100,64280,71000,65520,60590,67410,73700,71790,70680,68680,73250,74110,75720,70180,67030,64530,71810,72560,73040,74090,68230,68620,62900,3022060
ARI1101,MRPL,GG,AUCK,kWh,I,F,24/04/1999,72470,68830,39710,40090,38330,47120,48830,49240,46450,46190,45870,51230,47720,46810,48220,58910,70640,71240,72240,70460,71370,72030,73370,73790,72390,67850,61600,63390,62430,63330,62950,54290,49810,49290,49500,58960,58200,59050,60370,54210,55170,58820,57660,57130,46040,29320,30300,28570,2681790
ARI1101,MRPL,GG,AUCK,kWh,I,F,25/04/1999,42430,36210,37090,32860,31640,32180,29060,26760,25950,27470,28320,24390,28190,22450,22510,24380,22880,23030,32950,41590,42300,37700,41790,46830,44660,46030,43430,45450,45600,47600,48850,46990,45680,46610,49520,69370,63730,66130,45820,56020,62870,57890,45810,40700,38460,35300,39100,41730,1934310
ARI1101,MRPL,GG,AUCK,kWh,I,F,26/04/1999,42220,40420,38200,36340,37790,35130,34720,37530,29160,23660,24040,25990,25600,35140,59500,69220,70820,72310,71970,72960,65300,60600,55130,50290,50780,42600,39110,40230,43020,44960,43960,57190,71520,66640,69420,75080,69390,69070,70760,75820,70940,74530,71700,73410,69330,63420,61990,52660,2581570
ARI1101,MRPL,GG,AUCK,kWh,I,F,27/04/1999,58180,58000,53710,51960,52430,52140,54290,53670,47430,47710,46310,37990,41740,50520,67700,64130,70390,67390,64590,62880,58620,58790,62010,63380,68050,70010,64650,64820,72230,74570,74530,74480,65620,68950,73530,75150,72460,73010,64220,57590,58000,57010,58720,56540,57060,57740,61220,61980,2928100
ARI1101,MRPL,GG,AUCK,kWh,I,F,28/04/1999,62170,60950,51300,51550,44650,30150,30690,29250,29240,31010,30850,30740,38440,44960,56410,69910,74240,72530,44080,44830,45060,45050,45070,44980,45180,45040,44960,45010,66190,75680,75720,75630,75760,75860,75910,75860,75760,75520,76040,75820,75960,75480,74820,75260,76020,70250,73760,72260,2781860
ARI1101,MRPL,GG,AUCK,kWh,I,F,29/04/1999,64450,52050,48350,43050,27090,23870,22430,24890,26840,24790,22840,13550,12810,16240,54820,72300,75330,75660,75860,75770,72860,73110,71450,66240,70510,66090,66100,62720,62530,62170,58120,59950,59470,61120,69940,75890,75710,75460,75990,76130,75700,76480,74510,72220,69830,68560,68860,66800,2787510
ARI1101,MRPL,GG,AUCK,kWh,I,F,30/04/1999,63070,62610,62640,62430,61880,55530,47930,37270,34810,34390,35310,46110,47840,48350,54120,67620,71970,72320,72790,72500,73070,67650,63160,60670,60100,56330,58530,58020,58830,57080,58780,56840,56730,57290,57210,69500,70130,71930,73520,77500,78460,78290,60390,49600,50960,56610,44520,39230,2832420
ARI1101,MRPL,GG,AUCK,kWh,I,F,01/05/1999,37760,27580,25870,19300,21060,20070,12540,12270,14580,14710,14000,12450,12880,12800,12830,13270,17420,35930,43330,54140,55440,58820,58750,59570,57030,48550,48980,49700,38340,33460,21310,21520,20590,58340,84040,85140,82700,84510,82280,86870,81670,67840,60210,60190,47130,46100,45700,45920,2025490
ARI1101,MRPL,GG,AUCK,kWh,I,F,02/05/1999,45910,41030,33400,30740,30390,30320,30190,30360,29810,29930,29900,29910,30420,30340,28750,29000,30790,28570,28780,38230,60180,61510,61020,69330,69490,69250,68000,66010,65590,68760,69970,70270,72220,71680,73000,80220,84890,73880,72770,75360,75580,70370,74190,73590,73410,59000,54900,55260,2576470
ARI1101,MRPL,GG,AUCK,kWh,I,F,03/05/1999,50810,46110,42920,41880,43400,43330,43290,42920,42740,43570,43010,41520,45820,55320,61950,69640,69830,72840,75130,74280,75520,70490,63250,61100,62170,62360,62280,62310,62100,62080,62210,62020,61870,56510,46860,65060,70060,67900,66720,71350,72750,73280,48090,41500,51980,53600,61440,53390,2780560
ARI1101,MRPL,GG,AUCK,kWh,I,F,04/05/1999,54130,55990,40390,36810,49170,44310,46530,47600,42190,30780,29700,30280,36590,60120,74060,72870,72310,72340,72550,72670,72470,72770,72640,72850,72840,72670,72660,73330,73790,73860,74010,73750,73870,73720,75020,76490,74370,74420,74520,75290,74850,75400,73620,75280,75130,75510,75010,66270,3107800
ARI1101,MRPL,GG,AUCK,kWh,I,F,05/05/1999,68420,73810,71510,69650,69360,74770,69660,62060,48830,37740,29910,29640,31890,40070,65840,72060,74050,74390,74500,74390,65050,65230,65200,65210,60790,54360,54350,54290,54230,54300,54310,57010,68480,75010,75520,75310,75430,75950,75000,75510,75270,75420,75590,75700,75900,70430,70350,47350,3079100
ARI1101,MRPL,GG,AUCK,kWh,I,F,06/05/1999,55710,72400,49350,41830,40910,39280,34190,34640,39940,44490,44440,38790,43700,50520,73550,71800,71730,71980,72070,72460,66130,63810,63130,64750,62650,63050,69450,73620,73820,73950,74220,74100,75180,75140,75630,74760,74450,74520,75550,75330,75270,74720,74830,75300,75320,68210,60170,42770,3033610
ARI1101,MRPL,GG,AUCK,kWh,I,F,07/05/1999,41380,39670,40960,48730,48590,58800,55790,46840,44150,42600,45630,43910,35120,34470,49680,64210,71670,71780,71960,59530,51640,50030,50080,50130,62530,69430,68280,68360,66860,67040,56590,49720,49600,49470,50520,64570,73330,73820,74300,74300,74130,62660,55910,50870,40350,21460,22000,17330,2580780
ARI1101,MRPL,GG,AUCK,kWh,I,F,08/05/1999,21670,22870,26310,28180,27740,27240,26330,26790,28270,26880,26700,27090,26370,27590,44000,45030,45370,49820,66110,68800,68810,69730,70870,66030,61590,59490,50660,47830,52100,54830,54100,52040,59210,58270,51040,67630,75260,60270,60180,60110,58890,60880,60450,59910,58860,58660,60090,56070,2363020
ARI1101,MRPL,GG,AUCK,kWh,I,F,09/05/1999,50570,41370,37790,39850,39450,25180,22970,22790,22610,22450,22570,22400,23030,22160,19870,22700,22950,28270,28310,33760,40870,44760,45150,42210,39560,37390,36070,34080,30690,30690,30730,30660,35990,41710,48400,67770,73080,70740,71620,68270,66020,56520,47670,35880,33800,28100,22430,21980,1803890